Regional Weather Roundup
Issued by NWS

Home | Current Version | Previous Version | Text Only | Print | Product List | Glossary On
Versions: 1 2 3 4 5 6 7 8 9 10 11 12 13 14 15 16 17 18 19 20 21 22 23 24 25 26 27 28 29 30 31 32 33 34 35 36 37 38 39 40 41 42 43 44 45 46 47 48 49 50
000
ASUS43 KMPX 180610
RWRMN
WEATHER ROUNDUP FOR MINNESOTA
NATIONAL WEATHER SERVICE TWIN CITIES/CHANHASSEN MN
100 AM CDT FRI APR 18 2014


NOTE: "FAIR" INDICATES FEW OR NO CLOUDS BELOW 12,000 FEET WITH NO
SIGNIFICANT WEATHER AND/OR OBSTRUCTIONS TO VISIBILITY. N/A MEANS
CURRENT SKY AND/OR WEATHER CONDITIONS ARE NOT AVAILABLE.

MNZ060>063-068>070-180700-
   Twin Cities Metro

CITY           SKY/WX    TMP DP  RH WIND       PRES   REMARKS
TWIN CITIES    FAIR      33  26  75 CALM      30.33R
6HR MIN TEMP:  32; 6HR MAX TEMP:  41;

ST PAUL        FAIR      30  26  85 CALM      30.34R
CRYSTAL        FAIR      26  22  84 CALM      30.32R
BLAINE         FAIR      28  27  93 CALM      30.33R
EDEN PRAIRIE   FAIR      31  24  75 CALM      30.32R
6HR MIN TEMP:  30; 6HR MAX TEMP:  41;

LAKEVILLE      FAIR      25  25 100 CALM      30.32S
SOUTH ST PAUL  FAIR      32  27  83 CALM      30.33R
LAKE ELMO      FAIR      28  28 100 CALM      30.34R
$$
MNZ001>005-007-008-013>017-022>024-027-028-180700-
   Northwest Minnesota

CITY           SKY/WX    TMP DP  RH WIND       PRES   REMARKS
BEMIDJI        FAIR      26  10  50 CALM      30.28S
HALLOCK        CLOUDY    30  16  55 E8        30.30F WCI  23
ROSEAU         FAIR      28  18  64 CALM      30.31S
WARROAD        FAIR      23  16  74 CALM      30.31S
THIEF RVR FALL FAIR      30  16  55 CALM      30.30F
CROOKSTON      FAIR      30  21  69 E6        30.31S WCI  24
FOSSTON        FAIR      27  14  59 E5        30.29S WCI  21
DETROIT LAKES  FAIR      32  19  59 CALM      30.28S
MOORHEAD       MOCLDY    34  23  64 E5        30.29S WCI  30
PARK RAPIDS    FAIR      29   8  41 NE5       30.27S WCI  24
$$
MNZ006-009>011-018-025>026-180700-
   North Central Minnesota

CITY           SKY/WX    TMP DP  RH WIND       PRES   REMARKS
BAUDETTE       FAIR      23  17  78 CALM      30.30S
FLAG ISLAND    FAIR      25  14  63 CALM      30.31R
INTL FALLS     FAIR      21  17  84 CALM      30.30S
6HR MIN TEMP:  21; 6HR MAX TEMP:  38;

WASKISH        FAIR      21  19  93 CALM      30.31R
BIG FORK       FAIR      21  18  86 CALM      30.30S
LONGVILLE      FAIR      27  21  80 CALM      30.29R
GRAND RAPIDS   FAIR      27  18  69 S5        30.30R WCI  21
CRANE LAKE     FAIR      12  10  92 CALM      30.34R
ORR            FAIR      18  16  93 CALM      30.28S
COOK           FAIR      18  18 100 CALM      30.30S
$$
MNZ012-019>021-037-180700-
   Northeast Minnesota

CITY           SKY/WX    TMP DP  RH WIND       PRES   REMARKS
DULUTH         FAIR      24  18  77 CALM      30.29R
6HR MIN TEMP:  21; 6HR MAX TEMP:  35;

ELY            FAIR      21  19  93 CALM      30.29S
HIBBING        FAIR      22  19  89 CALM      30.29S
EVELETH        FAIR      23  21  93 CALM      30.30S
DULUTH HARBOR  FAIR      30  25  80 CALM      30.34S
TWO HARBORS    FAIR      28  19  69 CALM      30.29S
SILVER BAY     FAIR      28  23  80 CALM      30.29S
GRAND MARAIS     N/A     32  30  92 CALM      30.31R
G MARAIS ARPRT CLOUDY    27  21  80 NW3       30.26S
$$
MNZ029>031-032-039>041-046>048-054>057-064-180700-
   West Central Minnesota

CITY           SKY/WX    TMP DP  RH WIND       PRES   REMARKS
FERGUS FALLS   MOCLDY    34  18  51 S5        30.27S WCI  30
WHEATON        CLOUDY    34  28  80 SE3       30.30S
MORRIS         CLOUDY    30  27  86 SE5       30.28F WCI  25
ALEXANDRIA     FAIR      29  22  75 W5        30.29S WCI  24
ELBOW LAKE     CLOUDY    32  24  73 E5        30.28F WCI  27
WADENA         FAIR      27  18  69 W3        30.27S
GLENWOOD       FAIR      28  21  74 SW3       30.29S
APPLETON       FAIR      28  23  80 S5        30.30R WCI  23
BENSON         FAIR      25  21  86 CALM      30.30S
ORTONVILLE     CLOUDY    30  19  64 S6        30.28F WCI  24
MADISON        MOCLDY    30  27  86 S3        30.29F
WILLMAR        FAIR      25  21  86 SE3       30.32S
$$
MNZ033>034-036-042>043-049>051-058-059-180700-
   Central Minnesota

CITY           SKY/WX    TMP DP  RH WIND       PRES   REMARKS
ST CLOUD       FAIR      28  22  78 CALM      30.30S
6HR MIN TEMP:  25; 6HR MAX TEMP:  41;

SAUK CENTRE    FAIR      27  19  71 CALM      30.30S
PAYNESVILLE    FAIR      23  21  91 CALM      30.31S
AITKIN         FAIR      32  21  64 CALM      30.29R
PINE RIVER     FAIR      30  23  74 E7        30.31R WCI  23
BRAINERD       FAIR      34  21  59 SE7       30.29R WCI  28
STAPLES        FAIR      28  16  59 CALM      30.27S
LONG PRAIRIE   FAIR      27  23  86 CALM      30.29S
LITTLE FALLS   FAIR      25  19  80 CALM      30.30R
LITCHFIELD     FAIR      25  25 100 CALM      30.31F
BUFFALO        FAIR      25  21  87 CALM      30.33S
MAPLE LAKE     FAIR      26  24  94 CALM      30.32F
$$
MNZ037-044-045-052-053-180700-
   East Central Minnesota

CITY           SKY/WX    TMP DP  RH WIND       PRES   REMARKS
PRINCETON      FAIR      25  21  86 CALM      30.31R
MORA           FAIR      25  21  86 CALM      30.33R
CAMBRIDGE      FAIR      25  18  74 CALM      30.31R
RUSH CITY      FAIR      24  22  91 CALM      30.33R
MOOSE LAKE     FAIR      25  21  86 CALM      30.30S
HINCKLEY       FAIR      23  21  93 CALM      30.31S
CLOQUET        FAIR      25  23  93 CALM      30.30S
MCGREGOR       FAIR      30  23  74 CALM      30.31R
$$
MNZ071>073-080-081-089-090-097-098-180700-
   Southwest Minnesota

CITY           SKY/WX    TMP DP  RH WIND       PRES   REMARKS
MONTEVIDEO     FAIR      27  21  80 SW5       30.31S WCI  21
GRANITE FALLS  FAIR      25  21  87 S6        30.33S WCI  18
CANBY          CLOUDY    32  22  65 S5        30.30F WCI  27
MARSHALL       CLOUDY    30  23  74 CALM      30.29S
REDWOOD FALLS  FAIR      30  24  78 CALM      30.31F
OLIVIA         FAIR      27  23  86 CALM      30.31S
PIPESTONE      CLOUDY    32  27  80 E8        30.25F WCI  25
WINDOM         FAIR      28  27  93 NE6       30.30S WCI  22
WORTHINGTON    MOCLDY    30  23  74 E5        30.29S WCI  25
JACKSON        MOCLDY    32  28  86 E8        30.29F WCI  25
TRACY          FAIR      30  27  88 CALM      30.29S
SLAYTON        CLOUDY    31  27  86 E5        30.28S WCI  26
$$
MNZ065>067-074>077-082>085-091>093-180700-
   South Central Minnesota

CITY           SKY/WX    TMP DP  RH WIND       PRES   REMARKS
MANKATO        FAIR      30  27  86 CALM      30.33R
NEW ULM        FAIR      28  28 100 CALM      30.32S
ST JAMES       MOCLDY    34  28  80 CALM      30.33R
FAIRMONT       FAIR      28  27  93 CALM      30.32S
GLENCOE        FAIR      30  26  85 CALM      30.32S
FARIBAULT      FAIR      32  27  80 CALM      30.32S HAZE
OWATONNA       FAIR      30  27  86 CALM      30.32R FOG
WASECA         FAIR      32  30  93 CALM      30.33S FOG
ALBERT LEA     FAIR      28  28 100 CALM      30.31S FOG
$$
MNZ078>079-086>088-094>096-180700-
   Southeast Minnesota

CITY           SKY/WX    TMP DP  RH WIND       PRES   REMARKS
ROCHESTER      FAIR      30  26  85 S3        30.31R FOG
6HR MIN TEMP:  30; 6HR MAX TEMP:  36;

RED WING       FAIR      27  25  93 CALM      30.32S
STANTON        FAIR      29  27  92 CALM      30.31S FOG
DODGE CENTER   FAIR      32  30  93 S5        30.31R WCI  27
WINONA         FAIR      32  28  86 CALM      30.34S
AUSTIN         FAIR      28  27  93 CALM      30.32R FOG
PRESTON        FAIR      32  28  84 CALM      30.31S
$$
ABBREVIATIONS USED IN REMARKS
   TC - TEMPERATURES IN CELSIUS
  WCI - WIND CHILL INDEX
   HX - HEAT INDEX
  VSB - VISIBILITY
$$



USA.gov is the U.S. government's official web portal to all federal, state and local government web resources and services.